EW8865 Weather Reports


time (UTC)temp
C
wind
direction
speed
KPH
gust
KPH
rain 1hr
cm
rain 24hr
cm
rain mn
cm
humidity
%
barometer
mb
20260831123503 20 289 16.1 24.1 0.00 1.27 0.56 68 1013.9
20260831123003 20 296 14.5 25.7 0.00 1.27 0.56 68 1013.8
20260831122504 20 288 19.3 29.0 0.00 1.27 0.56 68 1013.7
20260831122003 20 275 11.3 32.2 0.00 1.27 0.56 71 1013.6
20260831121503 20 293 19.3 27.4 0.00 1.27 0.56 71 1013.5
20260831121004 20 287 19.3 27.4 0.00 1.27 0.56 72 1013.5
20260831120504 19 296 20.9 32.2 0.00 1.27 0.56 74 1013.5
20260831120004 19 273 17.7 27.4 0.00 1.27 0.56 77 1013.4
20260831115503 18 287 16.1 27.4 0.00 1.27 0.56 80 1013.4
20260831115004 18 287 17.7 27.4 0.00 1.27 0.56 81 1013.4
20260831114503 18 278 19.3 32.2 0.00 1.27 0.56 77 1013.3
20260831114004 20 297 19.3 38.6 0.00 1.27 0.56 72 1013.1
20260831113504 20 295 16.1 25.7 0.00 1.27 0.56 71 1012.9
20260831113003 20 295 14.5 24.1 0.00 1.27 0.56 72 1012.8
20260831112503 20 302 14.5 24.1 0.00 1.27 0.56 70 1012.8
20260831112004 20 275 9.7 22.5 0.00 1.27 0.56 74 1012.7
20260831111503 19 279 14.5 25.7 0.00 1.27 0.56 77 1012.7
20260831111004 18 286 14.5 22.5 0.00 1.27 0.56 75 1012.7
20260831110004 20 287 19.3 32.2 0.00 1.27 0.56 72 1012.6
20260831105503 20 281 16.1 29.0 0.00 1.27 0.56 71 1012.5
20260831105004 20 278 19.3 32.2 0.00 1.27 0.56 71 1012.4
20260831104504 20 280 14.5 27.4 0.00 1.27 0.56 72 1012.2
20260831104004 20 294 12.9 20.9 0.00 1.27 0.56 75 1012.1
20260831103504 19 298 14.5 20.9 0.00 1.27 0.56 76 1012.1
20260831103004 19 294 12.9 24.1 0.00 1.27 0.56 74 1012.1
20260831102503 19 294 14.5 27.4 0.00 1.27 0.56 76 1012.1
20260831102004 18 262 16.1 25.7 0.00 1.27 0.56 77 1012.0
20260831101503 18 282 12.9 29.0 0.00 1.27 0.56 77 1011.9
20260831101004 18 287 12.9 20.9 0.00 1.27 0.56 77 1011.9
20260831100503 18 257 9.7 24.1 0.00 1.27 0.56 77 1011.8
20260831100003 18 280 14.5 24.1 0.00 1.27 0.56 78 1011.7
20260831095504 18 289 14.5 19.3 0.00 1.27 0.56 77 1011.7
20260831095003 18 304 9.7 19.3 0.00 1.27 0.56 78 1011.5
20260831094503 18 310 11.3 19.3 0.00 1.27 0.56 78 1011.4
20260831094004 18 314 12.9 24.1 0.00 1.27 0.56 78 1011.3
20260831093503 18 300 12.9 24.1 0.00 1.27 0.56 78 1011.3
20260831093004 18 316 14.5 20.9 0.00 1.27 0.56 79 1011.1
20260831092503 18 292 12.9 20.9 0.00 1.27 0.56 80 1011.1
20260831092004 17 302 14.5 27.4 0.00 1.27 0.56 81 1010.9
20260831091503 17 293 9.7 19.3 0.00 1.27 0.56 81 1010.9
20260831090503 17 293 12.9 25.7 0.00 1.27 0.56 82 1010.7
20260831090003 17 287 12.9 25.7 0.00 1.27 0.56 83 1010.7
20260831085504 17 277 14.5 20.9 0.00 1.27 0.56 83 1010.6
20260831084504 16 260 12.9 22.5 0.00 1.27 0.56 85 1010.6
20260831083504 16 264 11.3 20.9 0.00 1.27 0.56 84 1010.5
20260831083003 16 258 12.9 20.9 0.00 1.27 0.56 85 1010.3
20260831082504 16 254 8.0 16.1 0.00 1.27 0.56 86 1010.2
20260831082004 16 259 6.4 14.5 0.00 1.27 0.56 86 1010.1
20260831081503 16 260 11.3 19.3 0.00 1.27 0.56 86 1010.0
20260831081003 16 295 11.3 19.3 0.00 1.27 0.56 87 1009.9
20260831080504 16 282 9.7 19.3 0.00 1.27 0.56 88 1009.8
20260831080003 15 259 11.3 19.3 0.00 1.27 0.56 88 1009.7
20260831075503 15 285 11.3 20.9 0.00 1.27 0.56 88 1009.6
20260831075005 15 289 11.3 22.5 0.00 1.27 0.56 89 1009.6
20260831074004 15 287 9.7 19.3 0.00 1.27 0.56 91 1009.3
20260831073503 15 288 16.1 22.5 0.00 1.27 0.56 91 1009.3
20260831072003 15 262 12.9 20.9 0.00 1.27 0.56 92 1008.9
20260831071503 15 258 14.5 20.9 0.00 1.27 0.56 93 1008.8
20260831071004 15 263 12.9 19.3 0.03 1.27 0.56 93 1008.7
20260831070503 15 257 11.3 19.3 0.03 1.27 0.56 93 1008.6
20260831070004 14 274 14.5 20.9 0.03 1.27 0.56 93 1008.5
20260831065503 14 278 11.3 16.1 0.03 1.27 0.56 94 1008.4
20260831065004 14 261 11.3 19.3 0.03 1.27 0.56 93 1008.3
20260831064504 14 260 12.9 19.3 0.03 1.27 0.56 93 1008.2
20260831064004 14 262 11.3 20.9 0.03 1.27 0.56 94 1008.1
20260831063503 13 271 11.3 19.3 0.03 1.27 0.56 94 1008.1
20260831062504 13 259 9.7 12.9 0.03 1.27 0.56 93 1007.8
20260831062004 13 266 9.7 14.5 0.03 1.27 0.56 93 1007.7
20260831061003 13 255 9.7 14.5 0.00 1.27 0.53 94 1007.5
20260831060504 13 257 8.0 14.5 0.00 1.27 0.53 94 1007.3
20260831055503 13 256 9.7 14.5 0.00 1.27 0.53 94 1007.3
20260831055003 13 233 9.7 14.5 0.00 1.27 0.53 94 1007.1
20260831054503 13 224 8.0 12.9 0.00 1.27 0.53 94 1006.9
20260831054004 13 222 9.7 19.3 0.00 1.27 0.53 94 1006.8
20260831053004 13 233 6.4 12.9 0.00 1.27 0.53 94 1006.6
20260831052503 13 238 8.0 11.3 0.00 1.27 0.53 94 1006.6
20260831052004 13 243 8.0 12.9 0.00 1.27 0.53 94 1006.6
20260831051004 13 232 8.0 11.3 0.00 1.27 0.53 94 1006.3
20260831050504 13 232 8.0 11.3 0.00 1.27 0.53 94 1006.1
20260831050004 13 229 8.0 14.5 0.00 1.27 0.53 94 1006.1
20260831045004 13 225 8.0 12.9 0.00 1.27 0.53 94 1006.0
20260831044503 12 247 8.0 12.9 0.00 1.27 0.53 94 1006.0
20260831044004 12 251 4.8 8.0 0.00 1.27 0.53 94 1005.9
20260831043503 12 227 6.4 9.7 0.00 1.27 0.53 94 1005.8
20260831043004 12 231 8.0 9.7 0.00 1.27 0.53 94 1005.8
20260831042503 12 230 8.0 9.7 0.00 1.27 0.53 94 1005.8
20260831042003 12 231 6.4 9.7 0.00 1.27 0.53 94 1005.8
20260831041504 12 225 4.8 8.0 0.00 1.27 0.53 94 1005.8
20260831041003 12 225 4.8 9.7 0.00 1.27 0.53 94 1005.7
20260831040503 12 225 6.4 9.7 0.00 1.27 0.53 93 1005.7
20260831040004 12 222 4.8 8.0 0.00 1.27 0.53 93 1005.6
20260831035503 12 221 4.8 9.7 0.00 1.27 0.53 93 1005.6
20260831035003 12 218 4.8 8.0 0.00 1.27 0.53 93 1005.5
20260831034504 12 223 4.8 9.7 0.00 1.27 0.53 93 1005.6
20260831034004 12 232 8.0 9.7 0.00 1.27 0.53 93 1005.5
20260831033004 12 236 9.7 12.9 0.00 1.27 0.53 93 1005.5
20260831032504 12 233 4.8 9.7 0.00 1.27 0.53 93 1005.5
20260831032003 12 218 4.8 9.7 0.00 1.27 0.53 93 1005.3
20260831031003 12 223 4.8 8.0 0.00 1.27 0.53 93 1005.2
20260831030503 12 224 4.8 9.7 0.00 1.27 0.53 93 1005.2
20260831030004 12 228 4.8 11.3 0.00 1.27 0.53 93 1005.2
20260831024503 12 221 6.4 11.3 0.00 1.27 0.53 93 1005.0
20260831023504 12 226 8.0 9.7 0.00 1.27 0.53 93 1005.0
20260831023003 12 221 3.2 8.0 0.00 1.27 0.53 93 1004.9
20260831022504 12 212 4.8 8.0 0.00 1.27 0.53 93 1004.7
20260831022003 12 220 6.4 8.0 0.00 1.27 0.53 93 1004.7
20260831021504 12 236 6.4 8.0 0.00 1.27 0.53 93 1004.7
20260831021003 12 236 4.8 9.7 0.00 1.27 0.53 93 1004.6
20260831020503 12 231 4.8 8.0 0.00 1.27 0.53 93 1004.6
20260831020004 12 228 3.2 8.0 0.00 1.27 0.53 93 1004.5
20260831015504 12 226 4.8 9.7 0.00 1.27 0.53 93 1004.5
20260831015003 12 231 4.8 8.0 0.00 1.27 0.53 93 1004.4
20260831014503 12 221 6.4 9.7 0.00 1.27 0.53 93 1004.3
20260831014003 12 224 6.4 9.7 0.00 1.27 0.53 93 1004.2
20260831013503 12 235 4.8 8.0 0.00 1.27 0.53 92 1004.2
20260831013004 12 243 6.4 9.7 0.00 1.27 0.53 93 1004.2
20260831012503 12 243 6.4 11.3 0.00 1.27 0.53 92 1004.2
20260831011004 12 266 4.8 9.7 0.00 1.27 0.53 92 1004.2
20260831010504 12 275 4.8 9.7 0.00 1.27 0.53 92 1004.2
20260831010004 12 259 3.2 4.8 0.03 1.27 0.53 92 1004.1
20260831005504 12 261 4.8 9.7 0.05 1.27 0.53 92 1004.1
20260831004503 12 273 3.2 4.8 0.05 1.27 0.53 91 1003.9
20260831004004 12 272 3.2 4.8 0.05 1.27 0.53 92 1003.8
20260831003503 13 272 3.2 4.8 0.05 1.27 0.53 92 1003.8
20260831003004 13 271 3.2 4.8 0.08 1.27 0.53 92 1003.7
20260831002503 13 271 3.2 4.8 0.15 1.27 0.53 92 1003.7
20260831002003 13 279 3.2 9.7 0.15 1.27 0.53 92 1003.7
20260831001503 13 266 4.8 4.8 0.15 1.27 0.53 91 1003.6
20260831001004 13 248 3.2 4.8 0.18 1.27 0.53 91 1003.6
20260831000503 13 246 3.2 8.0 0.28 1.27 0.53 91 1003.5
20260831000004 13 244 3.2 11.3 0.51 1.27 0.51 91 1003.5
20260830235504 13 214 3.2 11.3 0.53 1.24 0.51 91 1003.7
20260830235003 13 188 8.0 12.9 0.53 1.24 0.51 91 1003.7
20260830234503 13 201 8.0 19.3 0.53 1.24 0.51 91 1003.7
20260830234003 13 213 11.3 14.5 0.51 1.22 0.48 91 1003.8
20260830233003 13 199 6.4 16.1 0.51 1.19 0.46 90 1003.6
20260830232503 13 264 6.4 12.9 0.43 1.12 0.38 89 1003.3
20260830232003 13 225 3.2 8.0 0.43 1.12 0.38 89 1003.2
20260830231504 13 210 4.8 11.3 0.43 1.12 0.38 89 1003.2
20260830231004 13 172 4.8 9.7 0.43 1.09 0.36 88 1003.2
20260830230504 13 201 4.8 11.3 0.33 0.99 0.25 87 1003.3
20260830230004 13 203 4.8 16.1 0.05 0.74 0.00 86 1003.6
20260830225504 13 253 6.4 11.3 0.03 0.71 0.71 86 1003.5
20260830225003 14 276 6.4 11.3 0.03 0.71 0.71 86 1003.4
20260830224503 14 290 4.8 16.1 0.03 0.71 0.71 86 1003.2
20260830224004 15 295 12.9 19.3 0.03 0.71 0.71 89 1003.1
20260830223504 15 229 11.3 20.9 0.03 0.71 0.71 89 1002.8
20260830223004 15 215 8.0 19.3 0.03 0.71 0.71 89 1002.8
20260830222504 15 217 8.0 11.3 0.03 0.71 0.71 90 1002.8
20260830222004 15 210 8.0 11.3 0.03 0.71 0.71 89 1002.8
20260830221504 15 217 9.7 19.3 0.03 0.71 0.71 89 1002.8
20260830220504 15 209 8.0 16.1 0.03 0.69 0.69 90 1002.8
20260830220004 15 221 9.7 19.3 0.03 0.69 0.69 90 1002.9
20260830215504 15 223 8.0 19.3 0.03 0.69 0.69 90 1002.9
20260830215003 15 208 8.0 20.9 0.03 0.69 0.69 90 1002.9
20260830214503 15 211 9.7 16.1 0.03 0.69 0.69 90 1002.9
20260830214003 15 200 8.0 12.9 0.05 0.69 0.69 91 1002.9
20260830213503 15 177 8.0 12.9 0.05 0.69 0.69 90 1002.9
20260830213004 15 200 4.8 12.9 0.05 0.69 0.69 91 1002.8
20260830212503 15 150 8.0 16.1 0.05 0.69 0.69 91 1002.8
20260830212004 15 212 4.8 14.5 0.05 0.69 0.69 91 1002.8
20260830211504 15 169 8.0 16.1 0.10 0.69 0.69 91 1002.8
20260830211004 15 184 4.8 12.9 0.10 0.69 0.69 91 1002.8
20260830210503 15 182 9.7 19.3 0.08 0.66 0.66 91 1002.8
20260830210004 15 184 8.0 12.9 0.08 0.66 0.66 91 1002.8
20260830205504 15 167 4.8 11.3 0.08 0.66 0.66 91 1002.8
20260830204004 15 202 4.8 8.0 0.05 0.64 0.64 91 1002.9
20260830203503 15 165 3.2 11.3 0.05 0.64 0.64 91 1003.0
20260830203004 15 165 6.4 14.5 0.05 0.64 0.64 91 1003.2
20260830201503 15 151 0.0 8.0 0.00 0.58 0.58 90 1003.5
20260830201003 15 136 0.0 4.8 0.00 0.58 0.58 90 1003.5
20260830200004 15 217 0.0 3.2 0.00 0.58 0.58 90 1003.5
20260830195503 15 217 1.6 4.8 0.00 0.58 0.58 90 1003.5
20260830195004 15 216 0.0 4.8 0.00 0.58 0.58 89 1003.5
20260830194503 15 215 0.0 0.0 0.00 0.58 0.58 89 1003.5
20260830194004 15 215 0.0 0.0 0.00 0.58 0.58 89 1003.5
20260830193004 15 217 0.0 3.2 0.00 0.58 0.58 89 1003.5
20260830192503 15 218 0.0 4.8 0.00 0.58 0.58 89 1003.3
20260830192003 15 218 4.8 9.7 0.00 0.58 0.58 89 1003.2
20260830191504 15 236 3.2 11.3 0.00 0.58 0.58 89 1003.1
20260830191004 15 218 4.8 11.3 0.00 0.58 0.58 89 1003.1
20260830190003 15 206 9.7 16.1 0.03 0.61 0.58 90 1003.2
20260830185503 15 225 8.0 16.1 0.05 0.61 0.58 90 1003.3
20260830185004 15 219 4.8 16.1 0.08 0.61 0.58 90 1003.2
20260830184503 15 202 9.7 19.3 0.13 0.61 0.58 90 1003.2
20260830184004 15 200 9.7 19.3 0.15 0.61 0.58 90 1003.1
20260830183503 15 223 9.7 19.3 0.23 0.61 0.58 90 1003.2
20260830183004 15 202 11.3 19.3 0.41 0.61 0.58 89 1003.2
20260830182503 15 172 9.7 24.1 0.43 0.61 0.58 89 1003.2
20260830182003 15 204 9.7 19.3 0.43 0.61 0.58 89 1003.3
20260830181503 16 192 9.7 19.3 0.43 0.61 0.58 89 1003.3
20260830181004 16 210 9.7 19.3 0.43 0.61 0.58 89 1003.4
20260830180504 16 184 8.0 16.1 0.46 0.61 0.58 89 1003.5
20260830175003 16 178 11.3 27.4 0.38 0.51 0.51 88 1003.6
20260830174504 16 152 16.1 32.2 0.33 0.48 0.46 88 1003.7
20260830174003 17 148 9.7 24.1 0.30 0.43 0.43 87 1003.8
20260830173504 17 172 14.5 24.1 0.23 0.36 0.33 86 1003.8
20260830173003 17 178 9.7 20.9 0.05 0.20 0.18 85 1003.8
20260830172504 17 189 8.0 19.3 0.03 0.15 0.15 85 1003.9
20260830171503 17 183 9.7 14.5 0.03 0.15 0.15 83 1003.8
20260830171003 17 186 11.3 32.2 0.03 0.15 0.15 82 1003.8
20260830165504 17 178 8.0 19.3 0.00 0.15 0.13 81 1004.1
20260830165004 17 208 8.0 20.9 0.00 0.15 0.13 80 1004.2
20260830164004 18 223 9.7 16.1 0.00 0.15 0.13 78 1004.1
20260830163503 18 209 9.7 19.3 0.00 0.15 0.13 78 1004.3
20260830163004 18 191 14.5 25.7 0.00 0.15 0.13 77 1004.2
20260830162504 18 213 14.5 24.1 0.00 0.15 0.13 77 1004.2
20260830162003 18 190 11.3 29.0 0.00 0.15 0.13 77 1004.2
20260830161004 18 198 11.3 20.9 0.00 0.15 0.13 79 1004.3
20260830160503 18 211 11.3 20.9 0.00 0.15 0.13 79 1004.3
20260830155504 17 218 11.3 19.3 0.00 0.15 0.13 82 1004.5
20260830155004 17 201 6.4 19.3 0.00 0.15 0.13 83 1004.4
20260830154004 17 222 4.8 9.7 0.00 0.15 0.13 84 1004.5
20260830153004 17 203 6.4 9.7 0.00 0.15 0.13 85 1004.6
20260830152503 17 206 8.0 16.1 0.00 0.15 0.13 85 1004.7
20260830152003 17 251 8.0 12.9 0.00 0.15 0.13 85 1004.8
20260830151504 17 255 9.7 14.5 0.00 0.15 0.13 85 1004.7
20260830151003 17 255 11.3 16.1 0.00 0.15 0.13 84 1004.8
20260830150504 17 242 11.3 19.3 0.00 0.15 0.13 84 1004.9
20260830150004 17 282 12.9 20.9 0.00 0.15 0.13 83 1004.9
20260830145503 17 264 11.3 19.3 0.00 0.15 0.13 82 1005.1
20260830144503 18 255 9.7 20.9 0.00 0.15 0.13 80 1005.0
20260830144004 18 215 12.9 27.4 0.00 0.15 0.13 78 1005.0
20260830143503 18 207 16.1 27.4 0.10 0.15 0.13 79 1005.1
20260830143004 18 204 11.3 22.5 0.10 0.15 0.13 79 1005.0
20260830142504 18 195 11.3 32.2 0.10 0.15 0.13 79 1005.1
20260830142003 18 206 14.5 24.1 0.10 0.15 0.13 79 1005.1
20260830141503 18 196 14.5 29.0 0.10 0.15 0.13 79 1005.0
20260830141003 18 183 9.7 27.4 0.10 0.15 0.13 80 1004.9
20260830140504 19 167 6.4 11.3 0.10 0.15 0.13 82 1004.9
20260830140003 19 200 3.2 9.7 0.10 0.15 0.13 82 1005.0
20260830135504 19 193 1.6 4.8 0.10 0.15 0.13 82 1005.1
20260830134003 20 192 8.0 22.5 0.10 0.15 0.13 74 1005.3
20260830133504 20 177 11.3 25.7 0.00 0.05 0.03 69 1005.4
20260830133004 21 185 11.3 22.5 0.00 0.05 0.03 67 1005.3
20260830132503 21 166 11.3 33.8 0.00 0.05 0.03 67 1005.4
20260830132003 21 188 9.7 19.3 0.00 0.05 0.03 67 1005.5
20260830131503 21 223 8.0 14.5 0.00 0.05 0.03 67 1005.4
20260830131003 21 175 9.7 19.3 0.00 0.05 0.03 67 1005.4
20260830130504 21 169 6.4 16.1 0.00 0.05 0.03 69 1005.5
20260830130003 21 216 9.7 14.5 0.00 0.05 0.03 68 1005.5
20260830125503 21 189 11.3 20.9 0.00 0.05 0.03 68 1005.7
20260830125003 21 151 11.3 25.7 0.00 0.05 0.03 70 1005.8
20260830124503 21 147 11.3 25.7 0.00 0.05 0.03 70 1005.9
20260830124004 20 198 9.7 25.7 0.00 0.05 0.03 70 1006.0